Weather History for Golden Triangle, MS

Change the Weather History Date:

Sunday, September 22, 2013

  Actual Average Record
Temperature  
Mean Temperature 66 °F -  
Max Temperature 80 °F 82 °F 95 °F (1998)
Min Temperature 53 °F 59 °F 48 °F (1999)
Cooling Degree Days 2    
Growing Degree Days 16 (Base 50)    
Moisture  
Dew Point 54 °F    
Average Humidity 77    
Maximum Humidity 94    
Minimum Humidity 39    
Precipitation  
Precipitation 0.00 in - - ()
Sea Level Pressure  
Sea Level Pressure 29.86 in    
Wind  
Wind Speed 5 mph (North)    
Max Wind Speed 14 mph    
Max Gust Speed 21 mph    
Visibility 10 miles    
Events      
Averages and records for this station are not official NWS values.
T = Trace of Precipitation, MM = Missing Value Source: NWS Daily Summary

Daily Weather History Graph

Daily Weather History Graph

Search for Another Location

Airport:

Trip Planner

Search our weather history database for the weather conditions in past years. The results will help you decide how hot, cold, wet, or windy it might be!

Date:

Astronomy

Sep. 22, 2013 Rise Set
Actual Time 6:42 AM CDT 6:50 PM CDT
Civil Twilight 6:17 AM CDT 7:15 PM CDT
Nautical Twilight 5:48 AM CDT 7:44 PM CDT
Astronomical Twilight 5:19 AM CDT 8:13 PM CDT
Moon 8:53 PM CDT 9:51 AM CDT
Length of Visible Light 12h 57m
Length of Day
12h 08m
Waning Gibbous, 88% of the Moon is Illuminated
Sep 22
Waning Gibbous
Sep 26
Last Quarter
Oct 4
New
Oct 11
First Quarter
Oct 18
Full

Hourly Weather History & Observations

Time (CDT) Temp. Heat Index Dew Point Humidity Pressure Visibility Wind Dir Wind Speed Gust Speed Precip Events Conditions
12:15 AM 59.0 °F - 55.4 °F 88% 29.85 in 10.0 mi North 4.6 mph - N/A   Clear
12:35 AM 59.0 °F - 55.4 °F 88% 29.85 in 10.0 mi North 4.6 mph - N/A   Clear
12:55 AM 57.2 °F - 55.4 °F 94% 29.85 in 10.0 mi North 5.8 mph - N/A   Clear
1:15 AM 57.2 °F - 55.4 °F 94% 29.85 in 10.0 mi North 5.8 mph - N/A   Clear
1:35 AM 57.2 °F - 55.4 °F 94% 29.86 in 10.0 mi North 4.6 mph - N/A   Clear
1:55 AM 57.2 °F - 55.4 °F 94% 29.85 in 10.0 mi North 5.8 mph - N/A   Clear
2:15 AM 57.2 °F - 53.6 °F 88% 29.85 in 10.0 mi North 4.6 mph - N/A   Clear
2:35 AM 57.2 °F - 53.6 °F 88% 29.85 in 10.0 mi North 5.8 mph - N/A   Clear
2:55 AM 55.4 °F - 53.6 °F 94% 29.85 in 10.0 mi North 4.6 mph - N/A   Clear
3:15 AM 55.4 °F - 53.6 °F 94% 29.85 in 10.0 mi North 4.6 mph - N/A   Clear
3:35 AM 55.4 °F - 53.6 °F 94% 29.85 in 10.0 mi North 4.6 mph - N/A   Clear
3:55 AM 55.4 °F - 53.6 °F 94% 29.85 in 10.0 mi North 5.8 mph - N/A   Clear
4:15 AM 55.4 °F - 53.6 °F 94% 29.85 in 10.0 mi North 4.6 mph - N/A   Clear
4:35 AM 55.4 °F - 53.6 °F 94% 29.86 in 10.0 mi North 3.5 mph - N/A   Clear
4:55 AM 53.6 °F - 51.8 °F 94% 29.86 in 10.0 mi North 5.8 mph - N/A   Clear
5:15 AM 55.4 °F - 53.6 °F 94% 29.87 in 10.0 mi North 4.6 mph - N/A   Clear
5:35 AM 53.6 °F - 51.8 °F 94% 29.87 in 10.0 mi North 5.8 mph - N/A   Clear
5:50 AM 53.6 °F - 51.8 °F 94% 29.87 in 10.0 mi North 4.6 mph - N/A   Clear
6:50 AM 53.6 °F - 51.8 °F 94% 29.88 in 10.0 mi North 4.6 mph - N/A   Clear
7:50 AM 57.2 °F - 55.4 °F 94% 29.88 in 10.0 mi NNE 9.2 mph - N/A   Clear
8:50 AM 62.6 °F - 57.2 °F 82% 29.89 in 10.0 mi NNE 9.2 mph - N/A   Clear
9:50 AM 69.8 °F - 55.4 °F 60% 29.90 in 10.0 mi NNE 9.2 mph - N/A   Clear
10:50 AM 71.6 °F - 53.6 °F 53% 29.90 in 10.0 mi ENE 13.8 mph 18.4 mph N/A   Clear
11:50 AM 73.4 °F - 51.8 °F 47% 29.89 in 10.0 mi NNE 11.5 mph 20.7 mph N/A   Clear
12:50 PM 77.0 °F - 53.6 °F 44% 29.88 in 10.0 mi NNE 11.5 mph 18.4 mph N/A   Clear
1:45 PM 78.8 °F - 51.8 °F 39% 29.87 in 10.0 mi NNE 8.1 mph - N/A   Clear
2:45 PM 80.6 °F 80.3 °F 53.6 °F 39% 29.85 in 10.0 mi NE 11.5 mph 16.1 mph N/A   Clear
3:45 PM 80.6 °F 80.3 °F 53.6 °F 39% 29.84 in 10.0 mi ENE 8.1 mph - N/A   Clear
4:45 PM 78.8 °F - 53.6 °F 42% 29.83 in 10.0 mi North 9.2 mph - N/A   Clear
5:45 PM 77.0 °F - 51.8 °F 41% 29.82 in 10.0 mi NE 9.2 mph - N/A   Clear
6:45 PM 71.6 °F - 55.4 °F 57% 29.83 in 10.0 mi NNE 8.1 mph - N/A   Clear
7:45 PM 68.0 °F - 55.4 °F 64% 29.84 in 10.0 mi NE 3.5 mph - N/A   Clear
8:15 PM 64.4 °F - 55.4 °F 73% 29.86 in 10.0 mi NNE 3.5 mph - N/A   Clear
8:35 PM 64.4 °F - 55.4 °F 73% 29.87 in 10.0 mi NNW 4.6 mph - N/A   Clear
8:55 PM 64.4 °F - 55.4 °F 73% 29.87 in 10.0 mi North 3.5 mph - N/A   Clear
9:15 PM 62.6 °F - 57.2 °F 82% 29.87 in 10.0 mi NNE 3.5 mph - N/A   Clear
9:35 PM 64.4 °F - 57.2 °F 77% 29.87 in 10.0 mi Calm Calm - N/A   Clear
9:55 PM 60.8 °F - 57.2 °F 88% 29.88 in 10.0 mi Calm Calm - N/A   Clear
10:15 PM 60.8 °F - - N/A% 29.88 in 10.0 mi Calm Calm - N/A   Clear
10:35 PM 59.0 °F - - N/A% 29.87 in 10.0 mi Calm Calm - N/A   Clear
10:55 PM 60.8 °F - - N/A% 29.87 in 10.0 mi North 3.5 mph - N/A   Clear
11:15 PM 57.2 °F - - N/A% 29.87 in 10.0 mi Calm Calm - N/A   Clear
11:35 PM 57.2 °F - - N/A% 29.87 in 10.0 mi NNW 3.5 mph - N/A   Clear
11:55 PM 57.2 °F - - N/A% 29.87 in 10.0 mi North 4.6 mph - N/A   Clear